Time,TemperatureF,DewpointF,PressureIn,WindDirection,WindDirectionDegrees,WindSpeedMPH,WindSpeedGustMPH,Humidity,HourlyPrecipIn,Conditions,Clouds,dailyrainin,SoftwareType,DateUTC
2013-08-23 16:13:00,86.9,62.3,29.95,East,90,0.0,0.0,44,0.00,,,0.00,WUHU216HW,2013-08-23 21:13:00,
2013-08-23 16:14:00,86.9,62.3,29.95,East,90,0.0,0.0,43,0.00,,,0.00,WUHU216HW,2013-08-23 21:14:00,
2013-08-23 16:19:00,87.4,62.1,29.96,East,90,3.5,3.8,43,0.00,,,0.00,WUHU216HW,2013-08-23 21:19:00,
2013-08-23 16:24:00,87.6,61.7,29.95,East,90,0.0,3.8,42,0.00,,,0.00,WUHU216HW,2013-08-23 21:24:00,
2013-08-23 16:29:00,87.6,61.7,29.96,East,90,0.0,1.5,42,0.00,,,0.00,WUHU216HW,2013-08-23 21:29:00,
2013-08-23 16:34:00,87.4,60.9,29.96,East,90,0.0,1.5,41,0.00,,,0.00,WUHU216HW,2013-08-23 21:34:00,
2013-08-23 16:39:00,86.9,60.4,29.95,East,90,0.0,4.0,41,0.00,,,0.00,WUHU216HW,2013-08-23 21:39:00,
2013-08-23 16:45:00,86.3,58.5,29.95,ENE,68,0.0,4.0,39,0.00,,,0.00,WUHU216HW,2013-08-23 21:45:00,
2013-08-23 16:50:00,86.5,60.1,29.96,East,90,0.0,0.0,41,0.00,,,0.00,WUHU216HW,2013-08-23 21:50:00,
2013-08-23 16:55:00,86.9,60.4,29.96,East,90,1.1,1.1,41,0.00,,,0.00,WUHU216HW,2013-08-23 21:55:00,
2013-08-23 17:00:00,87.0,61.2,29.96,East,90,0.0,1.1,42,0.00,,,0.00,WUHU216HW,2013-08-23 22:00:00,
2013-08-23 17:05:00,87.8,61.7,29.96,NE,45,7.6,8.5,42,0.00,,,0.00,WUHU216HW,2013-08-23 22:05:00,
2013-08-23 17:10:00,87.6,61.0,29.95,NE,45,3.3,8.5,41,0.00,,,0.00,WUHU216HW,2013-08-23 22:10:00,
2013-08-23 17:15:00,87.6,61.7,29.95,NE,45,0.0,3.3,42,0.00,,,0.00,WUHU216HW,2013-08-23 22:15:00,
2013-08-23 17:20:00,87.4,61.5,29.95,North,0,2.6,2.6,42,0.00,,,0.00,WUHU216HW,2013-08-23 22:20:00,
2013-08-23 17:25:00,86.7,60.2,29.95,NNW,338,0.0,2.6,41,0.00,,,0.00,WUHU216HW,2013-08-23 22:25:00,
2013-08-23 17:30:00,86.3,60.5,29.95,North,0,0.6,3.3,42,0.00,,,0.00,WUHU216HW,2013-08-23 22:30:00,
2013-08-23 17:35:00,85.8,60.7,29.95,North,0,0.0,3.3,43,0.00,,,0.00,WUHU216HW,2013-08-23 22:35:00,
2013-08-23 17:40:00,85.6,60.5,29.95,North,0,0.0,0.8,43,0.00,,,0.00,WUHU216HW,2013-08-23 22:40:00,
2013-08-23 17:45:00,85.2,60.2,29.95,NNE,23,0.0,0.8,43,0.00,,,0.00,WUHU216HW,2013-08-23 22:45:00,
2013-08-23 17:50:00,84.7,59.7,29.95,NNW,338,2.0,2.6,43,0.00,,,0.00,WUHU216HW,2013-08-23 22:50:00,
2013-08-23 17:55:00,84.0,59.0,29.95,North,0,0.0,3.1,43,0.00,,,0.00,WUHU216HW,2013-08-23 22:55:00,
2013-08-23 18:00:00,83.4,59.2,29.95,NNE,23,0.0,3.1,44,0.00,,,0.00,WUHU216HW,2013-08-23 23:00:00,
2013-08-23 18:05:00,83.1,59.5,29.95,NNE,23,0.0,0.8,45,0.00,,,0.00,WUHU216HW,2013-08-23 23:05:00,
2013-08-23 18:10:00,82.7,59.5,29.95,NNE,23,0.0,0.8,46,0.00,,,0.00,WUHU216HW,2013-08-23 23:10:00,
2013-08-23 18:16:00,82.0,59.1,29.95,NNE,23,0.0,0.0,46,0.00,,,0.00,WUHU216HW,2013-08-23 23:16:00,